Location: Twentynine Palms Airport
(34.1316°N, 115.9458°W)
Time: 10:17:09
(UTC-08:00)

Amateur Radio Satellites - All Passes

Search period start: 25 January 2015 09:47
Search period end: 26 January 2015 09:47
Location: Twentynine Palms Airport, 34.1316°N, 115.9458°W

Satellite Date Start Highest point End Downlink Frequencies (MHz)
Time Altitude Azimuth
HUMSAT D 25 Jan 09:50:02 09:54:01 38° 98° (E) 09:57:56 437.325/437.525
PHONESAT 2.4 25 Jan 09:50:03 09:53:32 47° 150° (SSE) 09:57:03 2401.200-2431.200
VELOX 1 25 Jan 09:55:59 10:00:07 36° 98° (E) 10:04:16 145.980
QB50P1 25 Jan 09:57:14 10:01:29 79° 77° (ENE) 10:05:47 145.935-145.965
ANTELSAT 25 Jan 09:57:31 10:02:11 60° 260° (W) 10:06:52 437.575/2403.000
DOVE 4 25 Jan 09:57:54 10:01:59 23° 291° (WNW) 10:05:49 437.250
COMPASS 1 25 Jan 09:59:33 10:01:57 15° 291° (WNW) 10:04:11 437.405
50 SAT 25 Jan 10:06:36 10:10:30 44° 99° (E) 10:14:22 437.505
TIGRISAT 25 Jan 10:08:06 10:12:38 47° 261° (W) 10:17:10 435.000
POLYITAN 1 25 Jan 10:08:58 10:13:14 73° 259° (WSW) 10:17:33 437.675
SO-50 25 Jan 10:09:00 10:12:59 32° 113° (ESE) 10:17:09 436.795
Oscar 11 25 Jan 10:10:03 10:13:44 27° 288° (WNW) 10:17:21 145.826/435.025
HO-68 25 Jan 10:11:24 10:16:52 23° 297° (WNW) 10:22:05 435.675
CINEMA 3 25 Jan 10:17:34 10:21:23 22° 291° (WNW) 10:24:58 145.822/145.860
CUBEBUG 1 25 Jan 10:18:11 10:21:48 25° 95° (E) 10:25:30 437.445
CUBEBUG 2 25 Jan 10:21:59 10:26:04 31° 288° (WNW) 10:29:59 437.445
RS-15 25 Jan 10:27:56 10:30:05 11° 6° (N) 10:32:25 29.354- 29.394
POPSAT HIP 1 25 Jan 10:31:46 10:35:46 38° 262° (W) 10:39:47 437.405
AIST 1 25 Jan 10:32:19 10:35:08 18° 89° (E) 10:38:06
BUGSAT 1 25 Jan 10:32:30 10:36:26 48° 261° (W) 10:40:25 437.445
DUCHIFAT 1 25 Jan 10:37:13 10:41:05 33° 263° (W) 10:44:57 145.980
UKube-1 25 Jan 10:43:11 10:46:35 22° 290° (WNW) 10:49:52 .
ZACube-1 25 Jan 10:49:17 10:52:46 22° 290° (WNW) 10:56:03 437.345
ESTCUBE 1 25 Jan 10:50:21 10:54:51 66° 101° (E) 10:59:21 437.505/2401.250
DELFI C3 25 Jan 10:50:25 10:51:37 11° 292° (WNW) 10:52:34 145.870
BEESAT 2 25 Jan 10:53:18 10:54:05 11° 45° (NE) 10:55:05 435.950
VERMONT LUNAR 25 Jan 10:55:31 10:58:51 40° 345° (NNW) 11:02:12 437.305
DX 1 25 Jan 10:59:35 11:02:04 14° 292° (WNW) 11:04:21 434.975-435.025
UNISAT 6 25 Jan 11:01:35 11:03:43 12° 270° (W) 11:05:35 437.425
AISAT 25 Jan 11:01:50 11:05:59 36° 287° (WNW) 11:10:05 437.250
FUNcube-1 25 Jan 11:03:22 11:06:08 16° 291° (WNW) 11:08:42 145.935
BEESAT 3 25 Jan 11:10:15 11:13:04 18° 50° (NE) 11:15:57 437.485
NANOSAT C BR1 25 Jan 11:12:48 11:14:59 13° 269° (W) 11:16:57 145.865
TISAT 1 25 Jan 11:13:31 11:16:54 23° 95° (E) 11:20:23 437.305
UWE-3 25 Jan 11:14:00 11:15:05 11° 294° (WNW) 11:15:53 435.000/436.395/437.385
Oscar 19 25 Jan 11:25:27 11:28:54 19° 68° (ENE) 11:32:34 437.125/150
HUMSAT D 25 Jan 11:27:05 11:29:30 15° 291° (WNW) 11:31:44 437.325/437.525
PHONESAT 2.4 25 Jan 11:28:42 11:32:10 42° 345° (NNW) 11:35:39 2401.200-2431.200
GONETS M04 25 Jan 11:29:24 11:36:22 27° 71° (ENE) 11:43:36
VELOX 1 25 Jan 11:33:26 11:36:28 18° 291° (WNW) 11:39:21 145.980
50 SAT 25 Jan 11:43:45 11:45:16 12° 292° (WNW) 11:46:34 437.505
SO-50 25 Jan 11:49:53 11:53:36 23° 309° (NW) 11:57:20 436.795
CUBEBUG 1 25 Jan 11:54:30 11:58:08 24° 289° (WNW) 12:01:39 437.445
SPROUT 25 Jan 11:56:27 12:00:49 81° 102° (ESE) 12:05:09 437.525
AIST 2 25 Jan 12:02:30 12:05:55 23° 52° (NE) 12:09:21 435.215
AIST 1 25 Jan 12:08:59 12:12:39 27° 283° (WNW) 12:16:16
BEESAT 2 25 Jan 12:28:43 12:32:52 72° 243° (WSW) 12:36:57 435.950
ESTCUBE 1 25 Jan 12:30:47 12:31:16 10° 294° (WNW) 12:31:27 437.505/2401.250
VERMONT LUNAR 25 Jan 12:34:24 12:37:28 27° 2° (N) 12:40:35 437.305
RS-15 25 Jan 12:39:11 12:48:16 28° 40° (NE) 12:58:01 29.354- 29.394
BEESAT 3 25 Jan 12:47:33 12:51:22 36° 246° (WSW) 12:55:06 437.485
TISAT 1 25 Jan 12:49:11 12:52:42 24° 289° (WNW) 12:56:07 437.305
SWISSCUBE 25 Jan 12:50:26 12:55:00 44° 99° (E) 12:59:34 437.505
PCSat 25 Jan 12:57:59 13:00:58 15° 48° (NE) 13:04:09 145.827
Oscar 19 25 Jan 13:03:00 13:07:57 45° 261° (W) 13:12:56 437.125/150
BEESAT 25 Jan 13:06:59 13:11:43 63° 101° (E) 13:16:27 436.000
PHONESAT 2.4 25 Jan 13:08:01 13:11:15 29° 2° (N) 13:14:30 2401.200-2431.200
ITUPSAT 1 25 Jan 13:08:07 13:12:52 63° 101° (ESE) 13:17:37 437.325
ITAMSAT 1 25 Jan 13:09:17 13:14:24 70° 76° (ENE) 13:19:35 435.822/435.867
GONETS M04 25 Jan 13:25:17 13:33:42 55° 269° (W) 13:42:02
AIST 2 25 Jan 13:40:53 13:44:32 27° 248° (WSW) 13:48:04 435.215
Gurwin Techsat 1B 25 Jan 13:41:16 13:46:35 87° 255° (WSW) 13:51:56 435.225
HORYU 2 25 Jan 13:43:11 13:46:59 28° 71° (ENE) 13:50:52 437.375
VERMONT LUNAR 25 Jan 14:12:35 14:16:03 52° 18° (NNE) 14:19:31 437.305
CUSAT 1 25 Jan 14:13:50 14:17:36 17° 61° (ENE) 14:21:05 437.405
SWISSCUBE 25 Jan 14:29:31 14:32:33 16° 292° (WNW) 14:35:23 437.505
AO-7 25 Jan 14:30:45 14:38:46 55° 68° (ENE) 14:46:53 29.400- 29.500
KKS-1 25 Jan 14:36:25 14:40:54 69° 284° (WNW) 14:45:20 437.445
M-CUBED/EXP-1 PRIME 25 Jan 14:36:28 14:39:19 27° 102° (ESE) 14:42:16 437.505
STARS 25 Jan 14:39:30 14:44:00 82° 104° (ESE) 14:48:25 437.465
PCSat 25 Jan 14:39:36 14:45:01 72° 246° (WSW) 14:50:23 145.827
JAS-2 25 Jan 14:41:29 14:45:19 20° 69° (ENE) 14:49:10 435.910
PHONESAT 2.4 25 Jan 14:46:41 14:50:16 53° 19° (NNE) 14:53:52 2401.200-2431.200
BEESAT 25 Jan 14:47:16 14:49:07 12° 294° (WNW) 14:50:40 436.000
ITUPSAT 1 25 Jan 14:48:28 14:50:19 12° 294° (WNW) 14:51:52 437.325
RS-15 25 Jan 14:50:45 15:02:16 85° 243° (WSW) 15:14:17 29.354- 29.394
ITAMSAT 1 25 Jan 14:53:03 14:54:30 11° 271° (W) 14:55:35 435.822/435.867
DANDE 25 Jan 15:03:57 15:10:28 41° 72° (ENE) 15:15:28 436.750
AUBIESAT-1 25 Jan 15:12:50 15:16:09 88° 103° (ESE) 15:19:33 437.475
HORYU 2 25 Jan 15:20:05 15:23:40 22° 265° (W) 15:27:08 437.375
O/OREOS (USA 219) 25 Jan 15:44:19 15:48:02 27° 103° (ESE) 15:51:51 437.305
MOZHAYETS 4 25 Jan 15:46:10 15:49:40 22° 94° (E) 15:53:16
VERMONT LUNAR 25 Jan 15:50:55 15:54:06 31° 213° (SSW) 15:57:16 437.305
CUSAT 1 25 Jan 15:55:19 16:01:35 54° 268° (W) 16:06:13 437.405
M-CUBED/EXP-1 PRIME 25 Jan 16:12:46 16:14:10 12° 294° (WNW) 16:15:26 437.505
Cubesat XI-IV 25 Jan 16:20:57 16:25:01 24° 69° (ENE) 16:29:14 437.490
JAS-2 25 Jan 16:24:42 16:30:17 44° 261° (W) 16:35:23 435.910
AO-7 25 Jan 16:24:51 16:31:56 29° 264° (W) 16:38:48 29.400- 29.500
PHONESAT 2.4 25 Jan 16:25:28 16:28:46 31° 213° (SSW) 16:32:03 2401.200-2431.200
CUTE-I 25 Jan 16:41:21 16:46:08 36° 71° (ENE) 16:51:01 437.470
DANDE 25 Jan 16:48:18 16:53:23 23° 276° (W) 16:57:24 436.750
RS-15 25 Jan 17:06:25 17:13:36 17° 257° (WSW) 17:19:56 29.354- 29.394
MOZHAYETS 4 25 Jan 17:23:00 17:26:55 28° 288° (WNW) 17:30:46
O/OREOS (USA 219) 25 Jan 17:23:50 17:27:27 23° 299° (WNW) 17:30:59 437.305
CUBESAT XI-V 25 Jan 17:27:09 17:30:28 20° 93° (E) 17:33:56 437.345
STRAND 1 25 Jan 17:33:56 17:37:04 17° 92° (E) 17:40:27 437.568
PRISM 25 Jan 17:35:22 17:39:07 33° 98° (E) 17:42:54 437.425
JUGNU 25 Jan 17:44:47 17:47:29 13° 167° (SSE) 17:50:18 437.505
Cubesat XI-IV 25 Jan 18:00:02 18:04:57 37° 263° (W) 18:09:49 437.490
CUTE-I 25 Jan 18:22:07 18:26:20 23° 266° (W) 18:30:26 437.470
YUBILEINY 25 Jan 18:24:49 18:31:24 26° 85° (E) 18:38:19 435.215
BRITE-PL 25 Jan 18:36:07 18:39:07 17° 66° (ENE) 18:42:27 437.365/2234.400
SO-50 25 Jan 18:44:52 18:47:28 15° 45° (NE) 18:50:16 436.795
HO-68 25 Jan 18:47:43 18:53:41 31° 66° (ENE) 18:59:49 435.675
GOMX 1 25 Jan 18:51:50 18:54:54 17° 67° (ENE) 18:58:17 467.674
CUBESAT XI-V 25 Jan 19:03:47 19:08:01 34° 287° (WNW) 19:12:12 437.345
STRAND 1 25 Jan 19:11:38 19:16:34 47° 287° (WNW) 19:21:28 437.568
COMPASS 1 25 Jan 19:11:42 19:14:22 17° 70° (ENE) 19:17:11 437.405
PRISM 25 Jan 19:11:47 19:14:25 16° 291° (WNW) 19:16:54 437.425
CANX-2 25 Jan 19:13:00 19:16:39 28° 73° (ENE) 19:20:23 2200.000
DOVE 4 25 Jan 19:21:47 19:25:41 25° 70° (ENE) 19:29:53 437.250
Oscar 11 25 Jan 19:28:00 19:28:56 11° 68° (ENE) 19:30:09 145.826/435.025
JUGNU 25 Jan 19:31:41 19:35:51 20° 176° (S) 19:40:03 437.505
CUTE 1.7 + AOD 2 25 Jan 19:37:13 19:41:22 50° 75° (ENE) 19:45:33 437.475
CINEMA 3 25 Jan 19:38:30 19:42:00 21° 69° (ENE) 19:45:45 145.822/145.860
AAUSAT CUBESAT 2 25 Jan 19:39:56 19:43:39 31° 73° (ENE) 19:47:25 437.432
CUBEBUG 2 25 Jan 19:42:09 19:43:59 12° 67° (ENE) 19:46:05 437.445
DELFI C3 25 Jan 19:58:27 20:01:17 19° 71° (ENE) 20:04:15 145.870
UKube-1 25 Jan 19:59:38 20:02:02 15° 68° (ENE) 20:04:38 .
SRMSAT 25 Jan 20:04:49 20:08:30 17° 171° (S) 20:12:13 437.500
ZACube-1 25 Jan 20:06:13 20:08:49 16° 69° (ENE) 20:11:38 437.345
BRITE-PL 25 Jan 20:12:35 20:17:11 47° 262° (W) 20:22:12 437.365/2234.400
SEEDS 25 Jan 20:13:18 20:17:33 69° 259° (W) 20:21:49 437.485
DX 1 25 Jan 20:14:37 20:18:02 24° 71° (ENE) 20:21:34 434.975-435.025
FUNcube-1 25 Jan 20:18:42 20:22:03 21° 70° (ENE) 20:25:34 145.935
YUBILEINY 25 Jan 20:19:15 20:27:45 56° 281° (W) 20:36:15 435.215
SO-50 25 Jan 20:23:40 20:28:36 70° 243° (WSW) 20:33:29 436.795
AISAT 25 Jan 20:23:45 20:24:02 10° 66° (ENE) 20:24:38 437.250
GOMX 1 25 Jan 20:27:56 20:32:36 47° 262° (W) 20:37:36 467.674
UWE-3 25 Jan 20:28:02 20:32:08 33° 73° (ENE) 20:36:23 435.000/436.395/437.385
HO-68 25 Jan 20:34:25 20:41:13 44° 261° (W) 20:47:57 435.675
HUMSAT D 25 Jan 20:39:21 20:42:18 19° 70° (ENE) 20:45:25 437.325/437.525
COMPASS 1 25 Jan 20:46:02 20:49:53 32° 263° (W) 20:53:41 437.405
CANX-2 25 Jan 20:49:25 20:52:39 20° 266° (W) 20:55:44 2200.000
VELOX 1 25 Jan 20:50:58 20:54:15 21° 70° (ENE) 20:57:39 145.980
50 SAT 25 Jan 20:51:28 20:54:14 18° 70° (ENE) 20:57:09 437.505
DOVE 4 25 Jan 20:58:59 21:03:19 31° 265° (W) 21:07:49 437.250
Oscar 11 25 Jan 21:00:25 21:04:42 57° 260° (W) 21:08:59 145.826/435.025
CUBEBUG 1 25 Jan 21:12:30 21:14:35 14° 68° (ENE) 21:16:53 437.445
CINEMA 3 25 Jan 21:14:31 21:18:58 36° 264° (W) 21:23:32 145.822/145.860
CUBEBUG 2 25 Jan 21:15:35 21:20:12 59° 260° (W) 21:24:57 437.445
CUTE 1.7 + AOD 2 25 Jan 21:16:23 21:17:39 11° 270° (W) 21:18:39 437.475
AAUSAT CUBESAT 2 25 Jan 21:16:35 21:19:25 17° 267° (W) 21:22:06 437.432
UNISAT 6 25 Jan 21:19:48 21:22:07 14° 91° (E) 21:24:38 437.425
JUGNU 25 Jan 21:20:11 21:24:15 19° 186° (S) 21:28:16 437.505
DELFI C3 25 Jan 21:32:52 21:36:24 27° 264° (W) 21:39:51 145.870
UKube-1 25 Jan 21:33:52 21:37:55 39° 261° (W) 21:41:59 .
QB50P2 25 Jan 21:37:34 21:39:30 13° 91° (E) 21:41:39 145.880/145.840
ZACube-1 25 Jan 21:40:30 21:44:52 43° 262° (W) 21:49:16 437.345
ESTCUBE 1 25 Jan 21:46:39 21:50:47 38° 73° (ENE) 21:54:57 437.505/2401.250
QB50P1 25 Jan 21:47:34 21:50:22 17° 93° (E) 21:53:18 145.935-145.965
DX 1 25 Jan 21:50:40 21:54:14 24° 265° (W) 21:57:45 434.975-435.025
SRMSAT 25 Jan 21:52:46 21:57:02 20° 181° (S) 22:01:17 437.500
ANTELSAT 25 Jan 21:54:02 21:58:10 37° 97° (E) 22:02:13 437.575/2403.000
FUNcube-1 25 Jan 21:54:11 21:58:15 31° 264° (W) 22:02:19 145.935
AISAT 25 Jan 21:55:49 22:00:12 64° 258° (WSW) 22:04:38 437.250
POLYITAN 1 25 Jan 21:59:08 22:02:38 24° 95° (E) 22:06:11 437.675
TIGRISAT 25 Jan 22:03:59 22:08:18 48° 99° (E) 22:12:31 435.000
TISAT 1 25 Jan 22:04:38 22:05:55 11° 68° (ENE) 22:07:26 437.305
UWE-3 25 Jan 22:05:19 22:08:47 20° 267° (W) 22:12:10 435.000/436.395/437.385
HUMSAT D 25 Jan 22:14:02 22:17:55 31° 264° (W) 22:21:48 437.325/437.525
BUGSAT 1 25 Jan 22:18:46 22:22:34 31° 97° (E) 22:26:24 437.445
AIST 1 25 Jan 22:19:18 22:23:29 46° 80° (E) 22:27:42
POPSAT HIP 1 25 Jan 22:20:48 22:24:55 44° 99° (E) 22:29:02 437.405
50 SAT 25 Jan 22:25:33 22:29:11 29° 264° (W) 22:32:48 437.505
DUCHIFAT 1 25 Jan 22:25:42 22:29:53 50° 99° (E) 22:34:04 145.980
VELOX 1 25 Jan 22:26:52 22:30:43 28° 264° (W) 22:34:30 145.980
ISS 25 Jan 22:27:17 22:30:32 72° 317° (NW) 22:33:50 145.825
CUBEBUG 1 25 Jan 22:46:30 22:50:38 43° 261° (W) 22:54:48 437.445
SPROUT 25 Jan 22:47:11 22:51:08 37° 73° (ENE) 22:55:09 437.525
UNISAT 6 25 Jan 22:54:59 22:59:12 40° 287° (WNW) 23:03:16 437.425
NANOSAT C BR1 25 Jan 22:59:21 23:03:37 61° 285° (WNW) 23:07:50 145.865
JUGNU 25 Jan 23:10:47 23:12:36 11° 195° (SSW) 23:14:18 437.505
QB50P2 25 Jan 23:11:35 23:15:41 42° 286° (WNW) 23:19:43 145.880/145.840
QB50P1 25 Jan 23:22:30 23:26:22 32° 287° (WNW) 23:30:09 145.935-145.965
ESTCUBE 1 25 Jan 23:25:02 23:27:51 16° 268° (W) 23:30:29 437.505/2401.250
ANTELSAT 25 Jan 23:31:49 23:34:41 16° 291° (WNW) 23:37:21 437.575/2403.000
POLYITAN 1 25 Jan 23:35:02 23:38:30 23° 289° (WNW) 23:41:51 437.675
TISAT 1 25 Jan 23:37:15 23:41:21 50° 260° (W) 23:45:30 437.305
SRMSAT 25 Jan 23:42:05 23:45:34 16° 191° (S) 23:48:59 437.500
TIGRISAT 25 Jan 23:42:30 23:44:40 13° 293° (WNW) 23:46:35 435.000
SWISSCUBE 25 Jan 23:53:44 23:57:57 33° 72° (ENE) 00:02:15 437.505
BUGSAT 1 25 Jan 23:54:52 23:57:53 18° 290° (WNW) 00:00:45 437.445
POPSAT HIP 1 25 Jan 23:58:16 00:00:30 14° 292° (WNW) 00:02:30 437.405
AIST 1 25 Jan 23:59:25 00:00:48 11° 273° (W) 00:01:53
DUCHIFAT 1 26 Jan 00:03:38 00:05:22 12° 292° (WNW) 00:06:52 145.980
ISS 26 Jan 00:06:58 00:07:36 10° 335° (NNW) 00:08:10 145.825
BEESAT 26 Jan 00:09:57 00:14:28 46° 74° (ENE) 00:19:03 436.000
ITUPSAT 1 26 Jan 00:11:25 00:15:58 47° 73° (ENE) 00:20:33 437.325
SPROUT 26 Jan 00:24:55 00:27:26 15° 268° (W) 00:29:46 437.525
GONETS M04 26 Jan 00:25:33 00:33:11 36° 88° (E) 00:40:57
Oscar 19 26 Jan 01:18:09 01:23:20 88° 109° (ESE) 01:28:27 437.125/150
M-CUBED/EXP-1 PRIME 26 Jan 01:22:14 01:25:44 26° 69° (ENE) 01:29:04 437.505
ITAMSAT 1 26 Jan 01:26:16 01:30:57 34° 97° (E) 01:35:41 435.822/435.867
KKS-1 26 Jan 01:30:47 01:35:12 67° 76° (ENE) 01:39:40 437.445
SWISSCUBE 26 Jan 01:32:21 01:35:55 20° 266° (W) 01:39:21 437.505
STARS 26 Jan 01:32:58 01:37:10 44° 73° (ENE) 01:41:25 437.465
BEESAT 26 Jan 01:49:55 01:52:38 14° 268° (W) 01:55:07 436.000
ITUPSAT 1 26 Jan 01:51:31 01:54:11 14° 268° (W) 01:56:36 437.325
O/OREOS (USA 219) 26 Jan 01:57:32 02:01:31 29° 64° (ENE) 02:05:33 437.305
AUBIESAT-1 26 Jan 01:57:49 02:02:02 64° 72° (ENE) 02:05:54 437.475
AIST 2 26 Jan 01:59:35 02:00:51 11° 109° (ESE) 02:02:23 435.215
Gurwin Techsat 1B 26 Jan 02:01:26 02:06:36 51° 99° (E) 02:11:46 435.225
BEESAT 2 26 Jan 02:19:56 02:23:55 54° 116° (ESE) 02:28:00 435.950
GONETS M04 26 Jan 02:21:40 02:29:55 42° 284° (WNW) 02:38:02
DANDE 26 Jan 02:31:43 02:33:16 11° 79° (E) 02:35:38 436.750
BEESAT 3 26 Jan 02:37:44 02:41:48 78° 299° (WNW) 02:45:57 437.485
AO-7 26 Jan 02:37:59 02:43:42 21° 93° (E) 02:49:49 29.400- 29.500
MOZHAYETS 4 26 Jan 02:45:50 02:48:14 15° 68° (ENE) 02:50:50
M-CUBED/EXP-1 PRIME 26 Jan 02:57:22 03:00:42 21° 259° (W) 03:03:43 437.505
RS-15 26 Jan 03:02:37 03:08:48 18° 103° (ESE) 03:15:47 29.354- 29.394
ITAMSAT 1 26 Jan 03:06:04 03:10:19 25° 291° (WNW) 03:14:26 435.822/435.867
STARS 26 Jan 03:11:37 03:13:55 13° 269° (W) 03:15:59 437.465
HORYU 2 26 Jan 03:14:11 03:18:40 85° 283° (WNW) 03:23:05 437.375
CUSAT 1 26 Jan 03:14:12 03:20:49 33° 88° (E) 03:28:12 437.405
AIST 2 26 Jan 03:34:56 03:39:04 52° 302° (WNW) 03:43:16 435.215
PCSat 26 Jan 03:35:19 03:39:37 25° 108° (ESE) 03:44:04 145.827
JAS-2 26 Jan 03:36:33 03:41:10 26° 96° (E) 03:46:23 435.910
O/OREOS (USA 219) 26 Jan 03:37:14 03:40:48 22° 258° (WSW) 03:44:14 437.305
Gurwin Techsat 1B 26 Jan 03:42:45 03:46:13 17° 293° (WNW) 03:49:27 435.225
BEESAT 2 26 Jan 04:00:29 04:02:33 13° 313° (NW) 04:04:27 435.950
DANDE 26 Jan 04:07:48 04:15:20 69° 94° (E) 04:23:59 436.750
MOZHAYETS 4 26 Jan 04:20:43 04:25:08 46° 261° (W) 04:29:34
PRISM 26 Jan 04:23:41 04:26:08 16° 69° (ENE) 04:28:44 437.425
CUBESAT XI-V 26 Jan 04:28:40 04:30:35 13° 68° (ENE) 04:32:45 437.345
AO-7 26 Jan 04:28:57 04:37:15 70° 289° (WNW) 04:45:27 29.400- 29.500
Cubesat XI-IV 26 Jan 04:43:30 04:45:18 12° 90° (E) 04:47:29 437.490
STRAND 1 26 Jan 04:46:41 04:49:51 17° 67° (ENE) 04:53:12 437.568
CUSAT 1 26 Jan 04:56:03 05:03:35 50° 285° (WNW) 05:11:46 437.405
ISS 26 Jan 04:58:33 05:01:16 23° 34° (NE) 05:04:00 145.825
CUTE-I 26 Jan 05:02:55 05:06:40 20° 93° (E) 05:10:37 437.470
RS-15 26 Jan 05:09:01 05:20:01 88° 301° (WNW) 05:31:02 29.354- 29.394
PCSat 26 Jan 05:17:53 05:22:52 36° 303° (WNW) 05:27:51 145.827
JAS-2 26 Jan 05:21:10 05:26:22 38° 287° (WNW) 05:32:02 435.910
DANDE 26 Jan 05:53:19 05:59:42 24° 294° (WNW) 06:06:13 436.750
PRISM 26 Jan 05:57:41 06:01:26 33° 262° (W) 06:05:09 437.425
CUBESAT XI-V 26 Jan 06:03:10 06:07:39 52° 261° (W) 06:12:09 437.345
Cubesat XI-IV 26 Jan 06:20:38 06:25:59 68° 285° (WNW) 06:31:19 437.490
STRAND 1 26 Jan 06:23:49 06:28:44 47° 261° (W) 06:33:38 437.568
AO-7 26 Jan 06:25:11 06:28:47 13° 306° (NW) 06:31:49 29.400- 29.500
YUBILEINY 26 Jan 06:33:43 06:42:23 62° 80° (E) 06:51:05 435.215
ISS 26 Jan 06:34:53 06:37:47 28° 229° (SW) 06:40:38 145.825
CUTE-I 26 Jan 06:41:54 06:46:58 43° 288° (WNW) 06:52:00 437.470
RS-15 26 Jan 07:25:37 07:34:13 24° 323° (NW) 07:42:32 29.354- 29.394
CUTE 1.7 + AOD 2 26 Jan 07:28:50 07:30:01 11° 90° (E) 07:31:29 437.475
SEEDS 26 Jan 08:02:19 08:05:46 25° 95° (E) 08:09:16 437.485
HO-68 26 Jan 08:05:51 08:12:36 44° 99° (E) 08:19:24 435.675
BRITE-PL 26 Jan 08:20:52 08:26:35 79° 101° (E) 08:32:04 437.365/2234.400
YUBILEINY 26 Jan 08:31:55 08:38:39 24° 275° (W) 08:44:59 435.215
COMPASS 1 26 Jan 08:33:17 08:37:20 50° 99° (E) 08:41:23 437.405
GOMX 1 26 Jan 08:33:33 08:39:02 74° 100° (E) 08:44:14 467.674
VERMONT LUNAR 26 Jan 08:35:21 08:38:33 35° 148° (SSE) 08:41:47 437.305
CANX-2 26 Jan 08:37:24 08:41:39 86° 283° (WNW) 08:45:51 2200.000
ANTELSAT 26 Jan 08:49:44 08:53:26 24° 71° (ENE) 08:57:14 437.575/2403.000
POLYITAN 1 26 Jan 08:50:38 08:52:21 13° 68° (ENE) 08:54:18 437.675
Oscar 11 26 Jan 08:51:51 08:55:44 33° 97° (E) 08:59:37 145.826/435.025
TIGRISAT 26 Jan 08:59:09 09:03:09 29° 72° (ENE) 09:07:15 435.000
DOVE 4 26 Jan 09:01:37 09:06:53 80° 284° (WNW) 09:11:52 437.250
AAUSAT CUBESAT 2 26 Jan 09:02:07 09:06:16 79° 283° (WNW) 09:10:24 437.432
CUTE 1.7 + AOD 2 26 Jan 09:02:14 09:06:17 46° 285° (WNW) 09:10:19 437.475
BUGSAT 1 26 Jan 09:07:12 09:09:10 14° 68° (ENE) 09:11:20 437.445
POPSAT HIP 1 26 Jan 09:10:55 09:14:05 21° 71° (ENE) 09:17:24 437.405
CUBEBUG 2 26 Jan 09:11:14 09:15:32 39° 97° (E) 09:19:41 437.445
CINEMA 3 26 Jan 09:13:20 09:18:14 77° 101° (E) 09:22:53 145.822/145.860
PHONESAT 2.4 26 Jan 09:14:24 09:17:48 40° 149° (SSE) 09:21:15 2401.200-2431.200
DUCHIFAT 1 26 Jan 09:15:24 09:18:44 24° 71° (ENE) 09:22:11 145.980
DELFI C3 26 Jan 09:16:18 09:20:16 52° 100° (E) 09:24:11 145.870
UKube-1 26 Jan 09:25:09 09:29:19 44° 99° (E) 09:33:30 .
ZACube-1 26 Jan 09:33:18 09:37:36 48° 99° (E) 09:41:47 437.345
SEEDS 26 Jan 09:38:17 09:41:30 21° 289° (WNW) 09:44:35 437.485
